Flag for Canada Weather past 2 weeks in Kugluktuk, Nunavut, Canada

Now
43 °F

Scattered clouds.


Feels Like: 36 °F
Forecast: 25 / 37 °F
Wind: 14 mph from East

Location: Coppermine

Current Time: May 28, 2015 at 4:27:26 PM

Latest Report: May 28, 2015 at 3:00 PM


Visibility: 15 mi

Pressure: 30.45 "Hg

Humidity: 61%

Dew point: 30 °F

Location of KugluktukLocation

Historic Weather in Kugluktuk — Graph

°F

Kugluktuk temperature yesterday

Maximum temperature yesterday: 36 °F (at 4:00 PM)
Minimum temperature yesterday: 28 °F (at 12:00 AM)
Average temperature yesterday: 31 °F

Past Weeks' High & Low Weather Summary

 TemperatureHumidityPressure
High63 °F (May 22, 6:00 PM)100% (May 19, 3:00 AM)30.55 "Hg (May 19, 3:00 AM)
Low10 °F (May 15, 10:00 AM)49% (May 22, 6:00 PM)29.78 "Hg (May 14, 8:00 PM)
Average35 °F78%30.22 "Hg
* Reported May 13 3:00 PM — May 28 3:00 PM, Kugluktuk, Weather by CustomWeather, © 2015

Note: Actual official high and low records may vary slightly from our data, if they occured in-between our weather recording intervals... More about our weather records

Advertising

Kugluktuk weather history for previous 24 hours

 ConditionsComfort  
Time TempWeatherWind HumidityBarometerVisibility
3:00 PM
Thu, May 28
43 °FScattered clouds.14 mph61%30.45 "Hg15 mi
2:00 PM43 °FScattered clouds.14 mph57%30.47 "Hg15 mi
1:00 PM41 °FBroken clouds.14 mph61%30.48 "Hg15 mi
12:00 PM41 °FScattered clouds.10 mph61%30.50 "Hg15 mi
11:00 AM41 °FScattered clouds.3 mph53%30.51 "Hg15 mi
10:00 AM37 °FBroken clouds.7 mph52%30.51 "Hg15 mi
9:00 AM36 °FCloudy.7 mph60%30.53 "Hg15 mi
8:00 AM34 °FPartly sunny.7 mph65%30.54 "Hg15 mi
7:00 AM32 °FScattered clouds.5 mph75%30.54 "Hg15 mi
6:00 AM32 °FPartly sunny.7 mph75%30.55 "Hg15 mi
5:00 AM30 °FPartly sunny.3 mph80%30.55 "Hg15 mi
4:00 AM28 °FScattered clouds.5 mph80%30.55 "Hg15 mi
3:00 AM28 °FScattered clouds.5 mph80%30.54 "Hg15 mi
2:00 AM28 °FPassing clouds.7 mph80%30.54 "Hg15 mi
1:00 AM28 °FPassing clouds.6 mph86%30.53 "Hg15 mi
12:00 AM30 °FPassing clouds.5 mph80%30.53 "Hg15 mi
11:00 PM
Wed, May 27
32 °FPassing clouds.7 mph69%30.53 "Hg15 mi
10:00 PM32 °FPassing clouds.7 mph69%30.52 "Hg15 mi
9:00 PM34 °FPassing clouds.6 mph65%30.53 "Hg15 mi
8:00 PM36 °FOvercast.6 mph60%30.53 "Hg15 mi
7:00 PM36 °FPartly sunny.9 mph60%30.53 "Hg15 mi
6:00 PM36 °FOvercast.6 mph56%30.54 "Hg15 mi
5:00 PM34 °FMostly cloudy.7 mph60%30.54 "Hg15 mi
4:00 PM36 °FPartly sunny.5 mph52%30.55 "Hg15 mi
Weather by CustomWeather, © 2015

See weather overviewHow to use our weather pages